This is the latest recevied weather packets stored in our database for station/object KI5RAB. If no packets are shown the sender has not sent any weather packets the latest 10 day(s).
| Time | Temp. | Humidity | Pressure | Rain* | Wind** | Luminosity | Snow |
|---|---|---|---|---|---|---|---|
| 1777577452 | 21.11° C | 83% | 1014.5 hPa | 0 mm | - | 121 W/m² | - |
| 1777577150 | 21.11° C | 83% | 1014.3 hPa | 0 mm | - | 121 W/m² | - |
| 1777576846 | 21.11° C | 83% | 1014.4 hPa | 0 mm | - | 103 W/m² | - |
| 1777576545 | 21.11° C | 83% | 1014.4 hPa | 0 mm | - | 210 W/m² | - |
| 1777575634 | 21.67° C | 82% | 1014.5 hPa | 0 mm | - | 123 W/m² | - |
| 1777573811 | 21.67° C | 82% | 1014.4 hPa | 0 mm | - | 300 W/m² | - |
| 1777573506 | 21.67° C | 82% | 1014.3 hPa | 0 mm | - | 269 W/m² | - |
| 1777572595 | 21.67° C | 81% | 1014.6 hPa | 0 mm | - | 199 W/m² | - |
| 1777570472 | 20.56° C | 83% | 1014.9 hPa | 0 mm | - | 163 W/m² | - |
| 1777567740 | 20° C | 84% | 1015.6 hPa | 0 mm | - | 195 W/m² | - |
| 1777567135 | 20° C | 84% | 1015.8 hPa | 0 mm | - | 203 W/m² | - |
| 1777566530 | 19.44° C | 85% | 1015.7 hPa | 0 mm | - | 157 W/m² | - |
| 1777564708 | 19.44° C | 87% | 1015.8 hPa | 0 mm | - | 112 W/m² | - |
| 1777562585 | 19.44° C | 86% | 1015.5 hPa | 0 mm | - | 148 W/m² | - |
| 1777558033 | 18.33° C | 88% | 1015.1 hPa | 0 mm | - | 101 W/m² | - |
| 1777555904 | 17.22° C | 91% | 1015.1 hPa | 0 mm | - | 61 W/m² | - |
| 1777555297 | 17.22° C | 91% | 1015.2 hPa | 0 mm | - | 50 W/m² | - |
| 1777554993 | 17.22° C | 91% | 1015.1 hPa | 0 mm | - | 44 W/m² | - |
| 1777554387 | 16.67° C | 91% | 1015.7 hPa | 0 mm | - | 26 W/m² | - |
| 1777552260 | 16.67° C | 92% | 1015.5 hPa | 0 mm | - | 18 W/m² | - |
| 1777551957 | 16.67° C | 92% | 1015.4 hPa | 0 mm | - | 14 W/m² | - |
| 1777551654 | 16.11° C | 92% | 1015.1 hPa | 0 mm | - | 12 W/m² | - |
| 1777551352 | 16.11° C | 92% | 1014.9 hPa | 0 mm | - | 9 W/m² | - |
| 1777550745 | 16.11° C | 92% | 1014.9 hPa | 0 mm | - | 3 W/m² | - |
| 1777550441 | 16.11° C | 92% | 1014.9 hPa | 0 mm | - | 2 W/m² | - |
* Rain latest hour (hover to see other rain measurements)
** Current wind speed in m/s (hover to see current wind gust speed)